Location: Prague
(50.0830°N, 14.4670°E)
Time: 17:38:51
(UTC+01:00)

ZACube-1 - Visible Passes

Search period start: 03 December 2021 00:00
Search period end: 13 December 2021 00:00
Orbit: 583 x 664 km, 97.6° (Epoch: 02 December)

Date Brightness Start Highest point End Pass type
(mag) Time Alt. Az. Time Alt. Az. Time Alt. Az.
03 Dec ? 05:14:20 10° N 05:15:30 17° N 05:15:30 17° N visible
04 Dec ? 03:56:36 10° NNE 03:56:47 11° NNE 03:56:47 11° NNE visible
04 Dec ? 05:33:02 10° N 05:34:02 15° NNW 05:34:02 15° NNW visible
04 Dec ? 16:33:29 10° SW 16:36:44 21° W 16:40:03 10° NW visible
05 Dec ? 04:14:56 10° NNE 04:15:20 12° NNE 04:15:20 12° NNE visible
05 Dec ? 05:51:52 10° NNW 05:52:34 13° NNW 05:52:34 13° NNW visible
05 Dec ? 16:53:08 10° WSW 16:55:26 14° W 16:57:46 10° NW visible
06 Dec ? 04:33:21 10° NNE 04:33:52 13° NNE 04:33:52 13° NNE visible
06 Dec ? 06:10:53 10° NNW 06:11:06 11° NNW 06:11:06 11° NNW visible
07 Dec ? 04:51:52 10° N 04:52:25 13° N 04:52:25 13° N visible
08 Dec ? 05:10:29 10° N 05:10:58 13° N 05:10:58 13° N visible
09 Dec ? 05:29:10 10° N 05:29:32 12° N 05:29:32 12° N visible
10 Dec ? 05:47:58 10° N 05:48:04 10° NNW 05:48:04 10° NNW visible
10 Dec ? 16:48:56 10° SW 16:51:33 15° W 16:54:11 10° NW visible
11 Dec ? 17:09:48 10° W 17:10:17 10° W 17:10:45 10° WNW visible
